AAL728 KSAN-KLAX

Flight info

Callsign AAL728
Flight time 0h 27m
Altitude 10000
Route CWARD2 SLI DCT
Aircraft A339/H-SDE1E2E3FGHIJ4J5P2RWXYZ/LB1D1

Departure

Time 2026-04-22 03:30
Airport San Diego International Airport (KSAN)

Arrival

Time 2026-04-22 03:58
Airport Los Angeles International Airport (KLAX)
Time Latitude Longitude Altitude Speed Heading
2026-04-22 02:53 32.73241 -117.19949 29 ft 0 kts 184°
2026-04-22 03:17 32.73247 -117.19948 28 ft 2 kts 173°
2026-04-22 03:17 32.73261 -117.19955 28 ft 2 kts 140°
2026-04-22 03:18 32.73271 -117.19968 29 ft 2 kts 113°
2026-04-22 03:18 32.73274 -117.19985 29 ft 2 kts 85°
2026-04-22 03:18 32.73271 -117.20002 29 ft 2 kts 75°
2026-04-22 03:18 32.73268 -117.20013 29 ft 0 kts 78°
2026-04-22 03:19 32.73275 -117.19996 29 ft 3 kts 53°
2026-04-22 03:19 32.73298 -117.19982 29 ft 3 kts
2026-04-22 03:19 32.73325 -117.19978 29 ft 5 kts
2026-04-22 03:19 32.73376 -117.19971 29 ft 7 kts
2026-04-22 03:20 32.73416 -117.19965 29 ft 3 kts
2026-04-22 03:20 32.73427 -117.19964 29 ft 1 kts 11°
2026-04-22 03:20 32.73429 -117.19963 29 ft 0 kts 11°
2026-04-22 03:22 32.73440 -117.19961 29 ft 2 kts 13°
2026-04-22 03:22 32.73463 -117.19950 29 ft 3 kts 33°
2026-04-22 03:22 32.73479 -117.19920 29 ft 4 kts 79°
2026-04-22 03:22 32.73472 -117.19875 29 ft 6 kts 108°
2026-04-22 03:23 32.73456 -117.19813 29 ft 8 kts 107°
2026-04-22 03:23 32.73438 -117.19744 30 ft 9 kts 107°
2026-04-22 03:23 32.73419 -117.19666 31 ft 10 kts 106°
2026-04-22 03:23 32.73398 -117.19579 31 ft 11 kts 106°
2026-04-22 03:24 32.73375 -117.19486 32 ft 11 kts 106°
2026-04-22 03:24 32.73352 -117.19390 32 ft 12 kts 106°
2026-04-22 03:24 32.73327 -117.19283 32 ft 14 kts 106°
2026-04-22 03:24 32.73298 -117.19167 32 ft 15 kts 106°
2026-04-22 03:25 32.73268 -117.19041 31 ft 16 kts 106°
2026-04-22 03:25 32.73235 -117.18909 30 ft 16 kts 106°
2026-04-22 03:25 32.73203 -117.18774 30 ft 17 kts 105°
2026-04-22 03:25 32.73169 -117.18633 29 ft 17 kts 105°
2026-04-22 03:26 32.73136 -117.18493 29 ft 17 kts 105°
2026-04-22 03:26 32.73103 -117.18353 29 ft 18 kts 106°
2026-04-22 03:26 32.73066 -117.18208 29 ft 18 kts 107°
2026-04-22 03:26 32.73030 -117.18059 29 ft 18 kts 106°
2026-04-22 03:27 32.72994 -117.17913 31 ft 18 kts 106°
2026-04-22 03:27 32.72960 -117.17776 33 ft 9 kts 107°
2026-04-22 03:27 32.72949 -117.17731 33 ft 4 kts 105°
2026-04-22 03:27 32.72947 -117.17711 34 ft 0 kts 84°
2026-04-22 03:28 32.72948 -117.17703 34 ft 1 kts 83°
2026-04-22 03:28 32.72950 -117.17688 34 ft 2 kts 80°
2026-04-22 03:28 32.72958 -117.17652 35 ft 7 kts 63°
2026-04-22 03:28 32.72989 -117.17614 35 ft 4 kts 35°
2026-04-22 03:29 32.73008 -117.17611 36 ft 2 kts 348°
2026-04-22 03:29 32.73023 -117.17622 36 ft 2 kts 309°
2026-04-22 03:29 32.73036 -117.17652 36 ft 5 kts 292°
2026-04-22 03:29 32.73078 -117.17815 33 ft 50 kts 284°
2026-04-22 03:30 32.73237 -117.18489 31 ft 115 kts 286°
2026-04-22 03:30 32.73508 -117.19613 58 ft 163 kts 284°
2026-04-22 03:30 32.73833 -117.20955 545 ft 172 kts 286°
2026-04-22 03:30 32.73927 -117.22272 1392 ft 162 kts 253°
2026-04-22 03:31 32.73326 -117.23367 2049 ft 161 kts 235°
2026-04-22 03:31 32.72893 -117.24592 2370 ft 171 kts 273°
2026-04-22 03:31 32.73322 -117.25941 2689 ft 187 kts 312°
2026-04-22 03:31 32.74499 -117.26723 3007 ft 210 kts 348°
2026-04-22 03:32 32.76016 -117.26614 3379 ft 232 kts
2026-04-22 03:32 32.77679 -117.26583 3767 ft 246 kts 342°
2026-04-22 03:32 32.79171 -117.27557 4283 ft 253 kts 313°
2026-04-22 03:32 32.80100 -117.29330 4775 ft 254 kts 287°
2026-04-22 03:33 32.80566 -117.31346 4958 ft 255 kts 288°
2026-04-22 03:33 32.81323 -117.33236 4960 ft 254 kts 298°
2026-04-22 03:33 32.82274 -117.35027 5059 ft 259 kts 302°
2026-04-22 03:33 32.83310 -117.36791 5599 ft 260 kts 303°
2026-04-22 03:34 32.84360 -117.38509 5933 ft 260 kts 304°
2026-04-22 03:34 32.85455 -117.40259 6559 ft 266 kts 304°
2026-04-22 03:34 32.86552 -117.41988 7463 ft 264 kts 303°
2026-04-22 03:34 32.87659 -117.43724 8259 ft 266 kts 303°
2026-04-22 03:35 32.88780 -117.45474 9024 ft 268 kts 303°
2026-04-22 03:35 32.89915 -117.47248 9600 ft 271 kts 303°
2026-04-22 03:35 32.91056 -117.49026 9920 ft 272 kts 303°
2026-04-22 03:35 32.92209 -117.50825 9956 ft 272 kts 303°
2026-04-22 03:36 32.93350 -117.52606 9961 ft 272 kts 303°
2026-04-22 03:36 32.94511 -117.54416 9953 ft 272 kts 303°
2026-04-22 03:36 32.95658 -117.56208 9966 ft 272 kts 303°
2026-04-22 03:36 32.96791 -117.57974 9965 ft 272 kts 303°
2026-04-22 03:37 32.97938 -117.59763 9956 ft 272 kts 303°
2026-04-22 03:37 32.99098 -117.61574 9958 ft 272 kts 303°
2026-04-22 03:37 33.00232 -117.63345 9958 ft 271 kts 303°
2026-04-22 03:37 33.01377 -117.65134 9961 ft 272 kts 302°
2026-04-22 03:38 33.02536 -117.66950 9962 ft 272 kts 303°
2026-04-22 03:38 33.03680 -117.68737 9959 ft 271 kts 303°
2026-04-22 03:38 33.04832 -117.70525 9959 ft 271 kts 304°
2026-04-22 03:38 33.06049 -117.72229 9951 ft 272 kts 307°
2026-04-22 03:39 33.07377 -117.73864 9950 ft 274 kts 311°
2026-04-22 03:39 33.08797 -117.75393 9958 ft 276 kts 314°
2026-04-22 03:39 33.10245 -117.76874 9960 ft 276 kts 314°
2026-04-22 03:39 33.11706 -117.78361 9952 ft 277 kts 314°
2026-04-22 03:40 33.13187 -117.79866 9958 ft 277 kts 314°
2026-04-22 03:40 33.14644 -117.81348 9961 ft 277 kts 314°
2026-04-22 03:40 33.16104 -117.82834 9962 ft 277 kts 314°
2026-04-22 03:40 33.17590 -117.84325 9958 ft 278 kts 317°
2026-04-22 03:41 33.19220 -117.85580 9953 ft 282 kts 327°
2026-04-22 03:41 33.21059 -117.86521 9954 ft 287 kts 336°
2026-04-22 03:41 33.23003 -117.87121 9954 ft 290 kts 342°
2026-04-22 03:41 33.24985 -117.87614 9959 ft 290 kts 342°
2026-04-22 03:42 33.26968 -117.88094 9961 ft 290 kts 342°
2026-04-22 03:42 33.28948 -117.88575 9954 ft 290 kts 342°
2026-04-22 03:42 33.30924 -117.89061 9948 ft 290 kts 342°
2026-04-22 03:42 33.32906 -117.89552 9953 ft 290 kts 342°
2026-04-22 03:43 33.34881 -117.90043 9954 ft 290 kts 342°
2026-04-22 03:43 33.36861 -117.90536 9951 ft 290 kts 342°
2026-04-22 03:43 33.38827 -117.91087 9946 ft 288 kts 339°
2026-04-22 03:43 33.40747 -117.91758 9952 ft 287 kts 338°
2026-04-22 03:44 33.42664 -117.92454 9957 ft 287 kts 338°
2026-04-22 03:44 33.44563 -117.93147 9951 ft 287 kts 337°
2026-04-22 03:44 33.46488 -117.93848 9950 ft 287 kts 337°
2026-04-22 03:44 33.48405 -117.94546 9951 ft 287 kts 337°
2026-04-22 03:45 33.50310 -117.95241 9951 ft 288 kts 337°
2026-04-22 03:45 33.52248 -117.95945 9952 ft 287 kts 337°
2026-04-22 03:45 33.54163 -117.96643 9937 ft 286 kts 337°
2026-04-22 03:45 33.56029 -117.97318 9566 ft 280 kts 337°
2026-04-22 03:46 33.57869 -117.97991 9123 ft 273 kts 337°
2026-04-22 03:46 33.59665 -117.98644 8816 ft 265 kts 337°
2026-04-22 03:46 33.61440 -117.99294 8562 ft 265 kts 337°
2026-04-22 03:46 33.63200 -117.99938 8289 ft 265 kts 338°
2026-04-22 03:47 33.64973 -118.00588 7991 ft 263 kts 338°
2026-04-22 03:47 33.66710 -118.01220 7767 ft 260 kts 338°
2026-04-22 03:47 33.68415 -118.01842 7479 ft 254 kts 339°
2026-04-22 03:47 33.70087 -118.02450 7210 ft 249 kts 339°
2026-04-22 03:48 33.71743 -118.03037 6979 ft 243 kts 339°
2026-04-22 03:48 33.73326 -118.03596 6947 ft 235 kts 339°
2026-04-22 03:48 33.74909 -118.04153 6947 ft 237 kts 339°
2026-04-22 03:48 33.76491 -118.04703 6955 ft 233 kts 340°
2026-04-22 03:49 33.78096 -118.05060 6949 ft 232 kts 349°
2026-04-22 03:49 33.79694 -118.05243 6948 ft 233 kts 351°
2026-04-22 03:49 33.81321 -118.05388 6944 ft 233 kts 351°
2026-04-22 03:49 33.82927 -118.05525 6884 ft 231 kts 351°
2026-04-22 03:50 33.84542 -118.05665 6646 ft 232 kts 351°
2026-04-22 03:50 33.86132 -118.05934 6422 ft 228 kts 341°
2026-04-22 03:50 33.87653 -118.06496 6145 ft 231 kts 337°
2026-04-22 03:50 33.89157 -118.07134 5951 ft 228 kts 336°
2026-04-22 03:51 33.90648 -118.07785 5833 ft 222 kts 336°
2026-04-22 03:51 33.92049 -118.08485 5672 ft 217 kts 332°
2026-04-22 03:51 33.93414 -118.09238 5315 ft 216 kts 332°
2026-04-22 03:51 33.94783 -118.09979 4924 ft 215 kts 332°
2026-04-22 03:52 33.96146 -118.10735 4544 ft 213 kts 329°
2026-04-22 03:52 33.97243 -118.11862 4151 ft 206 kts 301°
2026-04-22 03:52 33.97908 -118.13354 3800 ft 203 kts 293°
2026-04-22 03:52 33.98460 -118.14899 3483 ft 199 kts 291°
2026-04-22 03:53 33.98929 -118.16474 3169 ft 195 kts 276°
2026-04-22 03:53 33.98856 -118.18070 2878 ft 188 kts 259°
2026-04-22 03:53 33.98308 -118.19495 2609 ft 190 kts 239°
2026-04-22 03:53 33.97658 -118.20859 2314 ft 184 kts 244°
2026-04-22 03:54 33.97083 -118.22201 2031 ft 177 kts 244°
2026-04-22 03:54 33.96528 -118.23499 1734 ft 173 kts 244°
2026-04-22 03:54 33.95982 -118.24757 1544 ft 161 kts 244°
2026-04-22 03:54 33.95493 -118.25866 1521 ft 141 kts 243°
2026-04-22 03:55 33.95049 -118.26888 1523 ft 136 kts 249°
2026-04-22 03:55 33.94801 -118.27986 1538 ft 136 kts 261°
2026-04-22 03:55 33.94665 -118.29115 1544 ft 137 kts 263°
2026-04-22 03:55 33.94556 -118.30252 1418 ft 137 kts 264°
2026-04-22 03:56 33.94444 -118.31400 1236 ft 136 kts 264°
2026-04-22 03:56 33.94329 -118.32519 1060 ft 136 kts 263°
2026-04-22 03:56 33.94212 -118.33649 882 ft 136 kts 263°
2026-04-22 03:56 33.94094 -118.34785 701 ft 135 kts 263°
2026-04-22 03:57 33.93979 -118.35903 524 ft 135 kts 263°
2026-04-22 03:57 33.93865 -118.37014 349 ft 135 kts 263°
2026-04-22 03:57 33.93754 -118.38140 169 ft 134 kts 263°
2026-04-22 03:57 33.93655 -118.39204 120 ft 119 kts 261°
2026-04-22 03:58 33.93557 -118.40036 126 ft 77 kts 263°
2026-04-22 03:58 33.93508 -118.40498 132 ft 42 kts 263°
2026-04-22 03:58 33.93476 -118.40694 133 ft 9 kts 236°
2026-04-22 03:58 33.93446 -118.40718 133 ft 4 kts 192°
2026-04-22 03:59 33.93417 -118.40718 133 ft 2 kts 177°
2026-04-22 03:59 33.93410 -118.40717 133 ft 1 kts 177°
2026-04-22 03:59 33.93408 -118.40717 133 ft 0 kts 177°
2026-04-22 03:59 33.93401 -118.40717 133 ft 1 kts 183°
2026-04-22 04:00 33.93388 -118.40727 133 ft 3 kts 222°
2026-04-22 04:00 33.93368 -118.40758 133 ft 6 kts 238°
2026-04-22 04:00 33.93355 -118.40816 132 ft 8 kts 259°